1357344025263,163.254
1357344085263,162.862
1357344145263,162.246
1357344205263,162.708
1357344265263,162.349
1357344325263,162.411
1357344385263,162.448
1357344445263,162.525
1357344505263,162.421
1357344565263,162.689
1357344625263,162.528
1357344685263,162.442
1357344745263,162.413
1357344805263,162.432
1357344865263,162.296
1357344925263,162.805
1357344985263,162.585
1357345045263,162.714
1357345105263,162.540
1357345165263,162.754
1357345225263,162.780
1357345285263,162.300
1357345345263,162.780
1357345405263,162.712
1357345465263,162.495
1357345525263,162.496
1357345585263,162.220
1357345645263,162.460
1357345705263,162.506
1357345765263,162.435
1357345825263,162.595
1357345885263,162.592
1357345945263,162.771
1357346005263,162.326
1357346065263,162.626
1357346125263,162.464
1357346185263,162.553
1357346245263,162.459
1357346305263,162.732
1357346365263,162.876
1357346425263,162.831
1357346485263,162.923
1357346545263,162.603
1357346605263,162.744
1357346665263,162.905
1357346725263,162.785
1357346785263,162.958
1357346845263,163.182
1357346905263,162.953
1357346965263,162.872
1357347025263,162.839
1357347085263,163.381
1357347145263,162.972
1357347205263,163.040
1357347265263,163.072
1357347325263,163.133
1357347385263,163.239
1357347445263,163.076
1357347505263,163.521
1357347565263,163.634
1357347625273,163.545
1357347685273,163.880
1357347745273,163.470
1357347805273,163.231
1357347865273,163.603
1357347925273,163.629
1357347985273,163.523
1357348045273,163.709
1357348105273,163.596
1357348165273,163.808
1357348225273,163.750
1357348285273,163.554
1357348345273,163.548
1357348405273,163.802
1357348465273,164.209
1357348525273,164.071
1357348585273,163.860
1357348645273,164.011
1357348705273,164.016
1357348765273,163.976
1357348825273,164.158
1357348885273,164.322
1357348945273,164.224
1357349005273,164.046
1357349065273,164.582
1357349125273,164.560
1357349185273,164.303
1357349245273,164.283
1357349305273,164.127
1357349365273,164.446
1357349425273,164.404
1357349485273,164.380
1357349545273,164.333
1357349605273,164.350
1357349665273,164.296
1357349725273,164.654
1357349785273,164.282
1357349845273,164.643
1357349905273,164.445
1357349965273,164.226
1357350025273,164.559
1357350085273,164.573
1357350145273,164.983
1357350205273,164.823
1357350265273,164.851
1357350325273,164.797
1357350385273,164.750
1357350445273,165.031
1357350505273,164.614
1357350565273,165.097
1357350625273,164.862
1357350685273,164.924
1357350745273,164.847
1357350805273,165.213
1357350865273,165.319
1357350925273,164.997
1357350985273,164.858
1357351045273,164.853
1357351105273,164.902
1357351165273,164.880
1357351225283,165.190
1357351285283,165.065
1357351345283,165.058
1357351405283,164.901
1357351465283,165.109
1357351525283,165.356
1357351585283,165.217
1357351645283,165.131
1357351705283,165.084
1357351765283,165.082
1357351825283,165.050
1357351885283,165.339
1357351945283,165.353
1357352005283,165.518
1357352065283,165.336
1357352125283,165.504
1357352185283,165.325
1357352245283,165.622
1357352305283,165.462
1357352365283,165.422
1357352425283,165.605
1357352485283,165.505
1357352545283,165.915
1357352605283,165.225
1357352665283,165.445
1357352725283,165.534
1357352785283,165.996
1357352845283,165.964
1357352905283,165.814
1357352965283,165.802
1357353025283,165.844
1357353085283,165.978
1357353145283,165.997
1357353205283,166.063
1357353265283,165.996
1357353325283,166.211
1357353385283,166.286
1357353445283,165.688
1357353505283,166.242
1357353565283,165.859
1357353625283,165.586
1357353685283,165.945
1357353745283,166.215
1357353805283,166.213
1357353865283,165.967
1357353925283,166.028
1357353985283,166.001
1357354045283,165.668
1357354105283,165.826
1357354165283,165.981
1357354225283,166.010
1357354285283,165.901
1357354345283,165.707
1357354405283,165.717
1357354465283,165.943
1357354525283,166.387
1357354585283,166.034
1357354645283,165.848
1357354705283,165.881
1357354765283,166.032
1357354825293,165.915
1357354885293,166.192
1357354945293,166.373
1357355005293,166.156
1357355065293,165.802
1357355125293,165.949
1357355185293,165.996
1357355245293,165.714
1357355305293,165.982
1357355365293,166.105
1357355425293,165.826
1357355485293,165.935
1357355545293,165.490
1357355605293,165.839
1357355665293,165.710
1357355725293,165.632
1357355785293,165.772
1357355845293,165.570
1357355905293,165.778
1357355965293,165.462
1357356025293,165.599
1357356085293,165.357
1357356145293,165.645
1357356205293,165.530
1357356265293,165.073
1357356325293,165.725
1357356385293,165.446
1357356445293,165.566
1357356505293,165.554
1357356565293,165.663
1357356625293,165.418
1357356685293,165.172
1357356745293,165.441
1357356805293,165.620
1357356865293,165.174
1357356925293,164.966
1357356985293,165.295
1357357045293,164.867
1357357105293,165.143
1357357165293,164.908
1357357225293,165.233
1357357285293,165.281
1357357345293,165.348
1357357405293,164.890
1357357465293,165.767
1357357525293,165.272
1357357585293,165.294
1357357645293,165.140
1357357705293,165.049
1357357765293,165.204
1357357825293,165.101
1357357885293,165.233
1357357945293,165.561
1357358005293,165.623
1357358065293,165.146
1357358125293,165.565
1357358185293,165.592
1357358245293,165.510
1357358305293,165.072
1357358365293,165.456
1357358425303,165.407
1357358485303,165.408
1357358545303,164.747
1357358605303,165.136
1357358665303,165.190
1357358725303,165.378
1357358785303,165.031
1357358845303,164.945
1357358905303,165.455
1357358965303,164.753
1357359025303,165.343
1357359085303,165.371
1357359145303,165.403
1357359205303,165.294
1357359265303,165.135
1357359325303,165.285
1357359385303,165.296
1357359445303,165.146
1357359505303,165.494
1357359565303,165.312
1357359625303,165.328
1357359685303,165.492
1357359745303,165.244
1357359805303,165.475
1357359865303,165.442
1357359925303,165.217
1357359985303,165.090
1357360045303,165.404
1357360105303,165.642
1357360165303,165.524
1357360225303,165.470
1357360285303,165.017
1357360345303,165.648
1357360405303,165.799
1357360465303,165.284
1357360525303,165.535
1357360585303,165.112
1357360645303,165.502
1357360705303,165.308
1357360765303,165.482
1357360825303,165.547
1357360885303,165.492
1357360945303,165.489
1357361005303,165.521
1357361065303,165.538
1357361125303,165.718
1357361185303,165.471
1357361245303,165.921
1357361305303,165.935
1357361365303,166.325
1357361425303,165.805
1357361485303,165.850
1357361545303,166.015
1357361605303,165.854
1357361665303,165.804
1357361725303,165.538
1357361785303,165.747
1357361845303,165.588
1357361905303,165.689
1357361965303,165.751
1357362025314,165.576
1357362085314,165.337
1357362145314,166.014
1357362205314,165.947
1357362265314,165.665
1357362325314,165.735
1357362385314,165.926
1357362445314,165.872
1357362505314,165.648
1357362565314,165.770
1357362625314,165.832
1357362685314,166.071
1357362745314,165.801
1357362805314,165.864
1357362865314,166.094
1357362925314,166.147
1357362985314,166.000
1357363045314,166.306
1357363105314,166.141
1357363165314,166.228
1357363225314,166.024
1357363285314,166.477
1357363345314,166.478
1357363405314,166.400
1357363465314,166.595
1357363525314,166.937
1357363585314,166.622
1357363645314,166.505
1357363705314,166.196
1357363765314,166.328
1357363825314,166.460
1357363885314,166.256
1357363945314,166.394
1357364005314,166.857
1357364065314,166.535
1357364125314,166.385
1357364185314,166.574
1357364245314,166.888
1357364305314,166.309
1357364365314,166.589
1357364425314,166.776
1357364485314,166.669
1357364545314,166.446
1357364605314,166.420
1357364665314,166.535
1357364725314,166.243
1357364785314,166.614
1357364845314,166.670
1357364905314,166.595
1357364965314,166.394
1357365025314,166.687
1357365085314,166.436
1357365145314,166.646
1357365205314,166.783
1357365265314,166.757
1357365325314,166.671
1357365385314,166.973
1357365445314,167.056
1357365505314,166.980
1357365565314,167.010
1357365625324,166.708
1357365685324,166.896
1357365745324,166.856
1357365805324,166.543
1357365865324,166.865
1357365925324,166.944
1357365985324,167.128
1357366045324,166.912
1357366105324,167.003
1357366165324,166.813
1357366225324,167.238
1357366285324,167.074
1357366345324,166.939
1357366405324,167.010
1357366465324,166.974
1357366525324,167.039
1357366585324,166.898
1357366645324,167.076
1357366705324,166.903
1357366765324,167.124
1357366825324,166.929
1357366885324,166.787
1357366945324,166.626
1357367005324,166.932
1357367065324,166.838
1357367125324,166.890
1357367185324,166.534
1357367245324,166.948
1357367305324,166.737
1357367365324,166.840
1357367425324,166.671
1357367485324,166.705
1357367545324,166.664
1357367605324,166.833
1357367665324,166.690
1357367725324,166.957
1357367785324,167.047
1357367845324,166.630
1357367905324,166.809
1357367965324,166.556
1357368025324,166.503
1357368085324,166.795
1357368145324,166.681
1357368205324,167.010
1357368265324,166.834
1357368325324,166.368
1357368385324,166.797
1357368445324,166.775
1357368505324,166.628
1357368565324,166.425
1357368625324,166.877
1357368685324,166.830
1357368745324,166.415
1357368805324,166.628
1357368865324,166.674
1357368925324,166.386
1357368985324,166.581
1357369045324,167.079
1357369105324,166.804
1357369165324,166.358
1357369225335,166.685
1357369285335,166.661
1357369345335,166.518
1357369405335,166.944
1357369465335,166.382
1357369525335,166.176
1357369585335,166.498
1357369645335,166.359
1357369705335,166.487
1357369765335,166.762
1357369825335,166.615
1357369885335,166.366
1357369945335,166.461
1357370005335,166.919
1357370065335,167.012
1357370125335,166.912
1357370185335,166.689
1357370245335,166.569
1357370305335,166.769
1357370365335,166.848
1357370425335,166.721
1357370485335,166.623
1357370545335,166.666
1357370605335,166.725
1357370665335,166.572
1357370725335,166.094
1357370785335,166.362
1357370845335,166.484
1357370905335,166.521
1357370965335,166.431
1357371025335,166.317
1357371085335,166.333
1357371145335,166.254
1357371205335,166.403
1357371265335,166.270
1357371325335,166.280
1357371385335,166.388
1357371445335,166.346
1357371505335,166.309
1357371565335,166.313
1357371625335,166.403
1357371685335,166.555
1357371745335,166.431
1357371805335,166.369
1357371865335,166.313
1357371925335,166.525
1357371985335,166.102
1357372045335,166.320
1357372105335,166.069
1357372165335,166.495
1357372225335,166.301
1357372285335,166.351
1357372345335,166.305
1357372405335,166.479
1357372465335,166.283
1357372525335,166.494
1357372585335,166.731
1357372645335,166.470
1357372705335,166.866
1357372765335,166.891
1357372825346,167.023
1357372885346,166.648
1357372945346,166.919
1357373005346,167.044
1357373065346,166.850
1357373125346,166.843
1357373185346,166.902
1357373245346,166.690
1357373305346,166.520
1357373365346,167.036
1357373425346,166.748
1357373485346,167.009
1357373545346,167.244
1357373605346,167.365
1357373665346,167.044
1357373725346,167.254
1357373785346,167.307
1357373845346,167.252
1357373905346,167.318
1357373965346,167.055
1357374025346,167.259
1357374085346,167.217
1357374145346,167.031
1357374205346,166.826
1357374265346,167.379
1357374325346,167.225
1357374385346,167.372
1357374445346,167.760
1357374505346,167.445
1357374565346,167.172
1357374625346,167.459
1357374685346,167.477
1357374745346,167.328
1357374805346,167.421
1357374865346,167.264
1357374925346,166.909
1357374985346,167.148
1357375045346,167.339
1357375105346,167.020
1357375165346,166.887
1357375225346,167.013
1357375285346,166.847
1357375345346,166.955
1357375405346,167.067
1357375465346,166.622
1357375525346,166.732
1357375585346,166.826
1357375645346,166.535
1357375705346,166.699
1357375765346,166.475
1357375825346,167.091
1357375885346,166.941
1357375945346,167.227
1357376005346,167.160
1357376065346,166.801
1357376125346,167.305
1357376185346,167.363
1357376245346,167.325
1357376305346,167.484
1357376365346,167.227
1357376425358,167.400
1357376485358,167.264
1357376545358,167.721
1357376605358,167.256
1357376665358,167.324
1357376725358,167.343
1357376785358,167.298
1357376845358,167.338
1357376905358,167.492
1357376965358,167.198
1357377025358,167.456
1357377085358,167.323
1357377145358,167.180
1357377205358,167.341
1357377265358,167.351
1357377325358,167.234
1357377385358,167.045
1357377445358,167.350
1357377505358,167.052
1357377565358,166.902
1357377625358,166.953
1357377685358,167.093
1357377745358,167.411
1357377805358,167.259
1357377865358,166.940
1357377925358,167.118
1357377985358,167.260
1357378045358,167.073
1357378105358,166.872
1357378165358,167.084
1357378225358,167.025
1357378285358,167.446
1357378345358,167.244
1357378405358,167.315
1357378465358,167.494
1357378525358,166.834
1357378585358,166.833
1357378645358,166.949
1357378705358,167.045
1357378765358,167.340
1357378825358,166.965
1357378885358,166.868
1357378945358,166.904
1357379005358,166.508
1357379065358,166.692
1357379125358,166.669
1357379185358,166.543
1357379245358,166.521
1357379305358,166.912
1357379365358,166.757
1357379425358,166.832
1357379485358,166.892
1357379545358,166.329
1357379605358,166.321
1357379665358,166.786
1357379725358,166.018
1357379785358,166.723
1357379845358,166.483
1357379905358,166.598
1357379965358,166.508
1357380025369,166.559
1357380085369,166.465
1357380145369,166.202
1357380205369,166.529
1357380265369,166.464
1357380325369,167.007
1357380385369,167.074
1357380445369,166.744
1357380505369,166.698
1357380565369,166.505
1357380625369,166.553
1357380685369,166.398
1357380745369,166.757
1357380805369,167.003
1357380865369,166.626
1357380925369,166.904
1357380985369,166.909
1357381045369,166.499
1357381105369,166.418
1357381165369,166.672
1357381225369,166.630
1357381285369,166.530
1357381345369,166.432
1357381405369,166.287
1357381465369,166.523
1357381525369,166.307
1357381585369,166.577
1357381645369,166.535
1357381705369,166.647
1357381765369,166.276
1357381825369,166.776
1357381885369,166.580
1357381945369,166.576
1357382005369,166.829
1357382065369,166.801
1357382125369,166.519
1357382185369,166.747
1357382245369,166.594
1357382305369,166.477
1357382365369,166.805
1357382425369,167.181
1357382485369,166.794
1357382545369,167.282
1357382605369,166.789
1357382665369,166.623
1357382725369,166.855
1357382785369,167.124
1357382845369,167.105
1357382905369,166.700
1357382965369,166.493
1357383025369,166.929
1357383085369,166.757
1357383145369,166.751
1357383205369,166.624
1357383265369,167.061
1357383325369,166.601
1357383385369,166.667
1357383445369,166.769
1357383505369,166.796
1357383565369,166.629
1357383625380,166.722
1357383685380,166.568
1357383745380,166.799
1357383805380,166.596
1357383865380,166.278
1357383925380,166.510
1357383985380,166.761
1357384045380,166.121
1357384105380,166.533
1357384165380,166.755
1357384225380,166.675
1357384285380,166.380
1357384345380,166.846
1357384405380,166.696
1357384465380,166.710
1357384525380,167.017
1357384585380,166.851
1357384645380,166.675
1357384705380,166.649
1357384765380,166.624
1357384825380,166.380
1357384885380,166.999
1357384945380,166.617
1357385005380,167.070
1357385065380,166.698
1357385125380,166.660
1357385185380,166.797
1357385245380,166.765
1357385305380,166.639
1357385365380,167.001
1357385425380,166.693
1357385485380,166.662
1357385545380,166.830
1357385605380,166.948
1357385665380,166.740
1357385725380,166.791
1357385785380,166.455
1357385845380,166.778
1357385905380,166.837
1357385965380,166.583
1357386025380,166.543
1357386085380,166.844
1357386145380,166.616
1357386205380,166.667
1357386265380,166.620
1357386325380,166.907
1357386385380,166.709
1357386445380,166.935
1357386505380,166.571
1357386565380,166.924
1357386625380,166.809
1357386685380,166.768
1357386745380,166.730
1357386805380,166.692
1357386865380,166.939
1357386925380,166.535
1357386985380,167.082
1357387045380,166.795
1357387105380,166.548
1357387165380,166.782
1357387225392,167.138
1357387285392,166.947
1357387345392,166.903
1357387405392,167.352
1357387465392,166.989
1357387525392,167.116
1357387585392,167.368
1357387645392,167.342
1357387705392,167.123
1357387765392,167.246
1357387825392,167.428
1357387885392,167.242
1357387945392,166.914
1357388005392,167.054
1357388065392,167.258
1357388125392,167.112
1357388185392,167.213
1357388245392,167.126
1357388305392,166.996
1357388365392,167.324
1357388425392,167.456
1357388485392,167.063
1357388545392,167.543
1357388605392,167.201
1357388665392,167.261
1357388725392,167.225
1357388785392,167.432
1357388845392,166.942
1357388905392,167.114
1357388965392,167.250
1357389025392,167.293
1357389085392,167.260
1357389145392,167.455
1357389205392,167.181
1357389265392,167.250
1357389325392,167.393
1357389385392,167.232
1357389445392,167.131
1357389505392,167.267
1357389565392,167.403
1357389625392,167.214
1357389685392,167.039
1357389745392,167.247
1357389805392,167.030
1357389865392,167.075
1357389925392,167.356
1357389985392,167.459
1357390045392,167.177
1357390105392,167.140
1357390165392,166.979
1357390225392,167.196
1357390285392,167.281
1357390345392,167.062
1357390405392,167.163
1357390465392,167.417
1357390525392,167.207
1357390585392,167.467
1357390645392,167.521
1357390705392,167.186
1357390765392,167.381
1357390825403,167.343
1357390885403,167.381
1357390945403,167.252
1357391005403,167.417
1357391065403,167.534
1357391125403,167.253
1357391185403,167.252
1357391245403,167.589
1357391305403,167.224
1357391365403,167.721
1357391425403,167.503
1357391485403,167.207
1357391545403,167.480
1357391605403,167.321
1357391665403,167.497
1357391725403,167.479
1357391785403,167.232
1357391845403,167.034
1357391905403,167.568
1357391965403,167.298
1357392025403,167.528
1357392085403,167.145
1357392145403,167.245
1357392205403,167.403
1357392265403,167.775
1357392325403,167.572
1357392385403,167.546
1357392445403,167.571
1357392505403,167.619
1357392565403,167.646
1357392625403,167.251
1357392685403,167.344
1357392745403,167.457
1357392805403,167.465
1357392865403,167.182
1357392925403,167.309
1357392985403,167.338
1357393045403,167.367
1357393105403,167.325
1357393165403,167.535
1357393225403,167.528
1357393285403,167.577
1357393345403,167.378
1357393405403,167.740
1357393465403,167.654
1357393525403,167.327
1357393585403,167.555
1357393645403,167.698
1357393705403,167.725
1357393765403,167.513
1357393825403,167.618
1357393885403,167.845
1357393945403,167.818
1357394005403,167.683
1357394065403,167.627
1357394125403,167.675
1357394185403,167.816
1357394245403,167.418
1357394305403,167.565
1357394365403,167.896
1357394425415,167.616
1357394485415,167.549
1357394545415,167.929
1357394605415,167.901
1357394665415,167.943
1357394725415,167.996
1357394785415,167.663
1357394845415,167.979
1357394905415,167.716
1357394965415,167.855
1357395025415,168.155
1357395085415,167.634
1357395145415,168.353
1357395205415,167.944
1357395265415,168.112
1357395325415,167.909
1357395385415,167.914
1357395445415,168.263
1357395505415,168.060
1357395565415,168.320
1357395625415,168.123
1357395685415,168.464
1357395745415,168.184
1357395805415,168.624
1357395865415,168.421
1357395925415,168.441
1357395985415,168.746
1357396045415,168.736
1357396105415,168.827
1357396165415,168.272
1357396225415,168.427
1357396285415,168.864
1357396345415,168.857
1357396405415,168.766
1357396465415,168.255
1357396525415,168.120
1357396585415,168.601
1357396645415,168.598
1357396705415,168.636
1357396765415,168.710
1357396825415,168.582
1357396885415,168.647
1357396945415,168.471
1357397005415,168.734
1357397065415,168.521
1357397125415,168.659
1357397185415,168.690
1357397245415,169.014
1357397305415,168.919
1357397365415,168.751
1357397425415,168.458
1357397485415,168.968
1357397545415,168.793
1357397605415,168.639
1357397665415,168.511
1357397725415,168.834
1357397785415,168.558
1357397845415,168.711
1357397905415,168.557
1357397965415,168.428
1357398025426,168.967
1357398085426,168.500
1357398145426,168.498
1357398205426,168.594
1357398265426,168.927
1357398325426,168.498
1357398385426,168.663
1357398445426,168.253
1357398505426,168.409
1357398565426,168.290
1357398625426,168.600
1357398685426,168.354
1357398745426,167.997
1357398805426,168.524
1357398865426,168.487
1357398925426,168.234
1357398985426,168.404
1357399045426,168.243
1357399105426,168.394
1357399165426,168.459
1357399225426,168.262
1357399285426,168.518
1357399345426,168.230
1357399405426,168.092
1357399465426,168.172
1357399525426,167.782
1357399585426,168.234
1357399645426,168.423
1357399705426,168.215
1357399765426,168.143
1357399825426,168.293
1357399885426,167.893
1357399945426,168.002
1357400005426,168.229
1357400065426,168.219
1357400125426,168.165
1357400185426,167.905
1357400245426,168.199
1357400305426,168.028
1357400365426,168.143
1357400425426,167.763
1357400485426,167.931
1357400545426,168.123
1357400605426,167.809
1357400665426,167.788
1357400725426,167.892
1357400785426,167.947
1357400845426,167.822
1357400905426,168.041
1357400965426,167.958
1357401025426,167.656
1357401085426,167.918
1357401145426,167.742
1357401205426,167.692
1357401265426,168.149
1357401325426,167.629
1357401385426,167.911
1357401445426,167.670
1357401505426,168.114
1357401565426,167.674
1357401625438,167.928
1357401685438,167.742
1357401745438,168.101
1357401805438,167.945
1357401865438,167.758
1357401925438,168.242
1357401985438,167.812
1357402045438,167.736
1357402105438,167.801
1357402165438,167.757
1357402225438,167.187
1357402285438,167.779
1357402345438,167.587
1357402405438,167.454
1357402465438,167.225
1357402525438,167.344
1357402585438,167.279
1357402645438,167.587
1357402705438,167.413
1357402765438,167.092
1357402825438,167.158
1357402885438,167.500
1357402945438,167.367
1357403005438,167.584
1357403065438,167.108
1357403125438,167.378
1357403185438,167.502
1357403245438,167.127
1357403305438,167.369
1357403365438,167.158
1357403425438,167.120
1357403485438,167.375
1357403545438,167.279
1357403605438,166.868
1357403665438,167.540
1357403725438,167.121
1357403785438,167.210
1357403845438,166.817
1357403905438,167.427
1357403965438,167.061
1357404025438,166.969
1357404085438,167.034
1357404145438,167.512
1357404205438,166.869
1357404265438,167.115
1357404325438,166.974
1357404385438,167.001
1357404445438,167.037
1357404505438,166.910
1357404565438,167.376
1357404625438,166.853
1357404685438,167.039
1357404745438,167.075
1357404805438,166.858
1357404865438,166.873
1357404925438,166.753
1357404985438,166.704
1357405045438,166.918
1357405105438,166.867
1357405165438,167.051
1357405225449,166.903
1357405285449,166.969
1357405345449,166.691
1357405405449,167.217
1357405465449,166.906
1357405525449,166.671
1357405585449,166.913
1357405645449,166.920
1357405705449,167.329
1357405765449,167.105
1357405825449,166.958
1357405885449,167.400
1357405945449,167.257
1357406005449,167.179
1357406065449,167.432
1357406125449,167.123
1357406185449,167.456
1357406245449,167.502
1357406305449,167.296
1357406365449,167.495
1357406425449,167.174
1357406485449,167.920
1357406545449,167.385
1357406605449,167.606
1357406665449,167.256
1357406725449,167.479
1357406785449,167.386
1357406845449,167.295
1357406905449,167.524
1357406965449,166.947
1357407025449,167.482
1357407085449,167.561
1357407145449,167.578
1357407205449,167.485
1357407265449,167.324
1357407325449,167.714
1357407385449,167.460
1357407445449,167.672
1357407505449,167.285
1357407565449,167.529
1357407625449,167.372
1357407685449,167.477
1357407745449,167.669
1357407805449,167.346
1357407865449,167.591
1357407925449,167.793
1357407985449,167.465
1357408045449,167.488
1357408105449,167.771
1357408165449,167.710
1357408225449,167.346
1357408285449,167.624
1357408345449,167.576
1357408405449,167.324
1357408465449,167.718
1357408525449,167.456
1357408585449,167.708
1357408645449,167.090
1357408705449,167.410
1357408765449,167.412
1357408825460,167.257
1357408885460,167.516
1357408945460,167.518
1357409005460,167.421
1357409065460,167.406
1357409125460,167.578
1357409185460,167.509
1357409245460,167.479
1357409305460,167.730
1357409365460,167.525